Hourly Weather Luka

Today, 7 May, Friday

Time Temperature Precipitation Wind Pressure Humidity
00:00 +4°C° 0.1 mm 2 mps 743 mmHg 79%
01:00 +4°C° 0.1 mm 2 mps 743 mmHg 83%
02:00 +3°C° 0 mm 2 mps 743 mmHg 88%
03:00 +3°C° 0 mm 2 mps 743 mmHg 89%
04:00 +3°C° 0 mm 2 mps 743 mmHg 91%
05:00 +3°C° 0 mm 2 mps 743 mmHg 93%
06:00 +4°C° 0 mm 3 mps 743 mmHg 87%
07:00 +7°C° 0 mm 3 mps 743 mmHg 81%
08:00 +9°C° 0 mm 3 mps 743 mmHg 75%
09:00 +10°C° 0 mm 4 mps 742 mmHg 69%
10:00 +11°C° 0 mm 4 mps 742 mmHg 62%
11:00 +13°C° 0 mm 5 mps 742 mmHg 55%
12:00 +12°C° 0.2 mm 5 mps 742 mmHg 60%
13:00 +11°C° 0.2 mm 6 mps 741 mmHg 65%
14:00 +10°C° 0.2 mm 6 mps 741 mmHg 70%
15:00 +9°C° 0.5 mm 5 mps 741 mmHg 77%
16:00 +8°C° 0.5 mm 4 mps 740 mmHg 84%
17:00 +8°C° 0.5 mm 3 mps 740 mmHg 91%
18:00 +8°C° 0 mm 3 mps 740 mmHg 93%
19:00 +8°C° 0 mm 2 mps 740 mmHg 94%
20:00 +7°C° 0 mm 2 mps 739 mmHg 96%
21:00 +8°C° 0 mm 1 mps 739 mmHg 96%
22:00 +7°C° 0 mm 1 mps 739 mmHg 96%
23:00 +7°C° 0 mm 1 mps 739 mmHg 96%

Tomorrow, 8 May, Saturday

Time Temperature Precipitation Wind Pressure Humidity
00:00 +7°C° 0.3 mm 1 mps 739 mmHg 96%
01:00 +7°C° 0.3 mm 1 mps 739 mmHg 96%
02:00 +7°C° 0.3 mm 1 mps 739 mmHg 97%
03:00 +7°C° 0.4 mm 1 mps 739 mmHg 97%
04:00 +6°C° 0.4 mm 2 mps 739 mmHg 97%
05:00 +6°C° 0.4 mm 2 mps 739 mmHg 97%
06:00 +6°C° 0.2 mm 2 mps 739 mmHg 95%
07:00 +5°C° 0.2 mm 3 mps 740 mmHg 94%
08:00 +5°C° 0.2 mm 4 mps 740 mmHg 93%
09:00 +6°C° 0.3 mm 4 mps 741 mmHg 88%
10:00 +6°C° 0.3 mm 4 mps 741 mmHg 83%
11:00 +7°C° 0.3 mm 5 mps 741 mmHg 78%
12:00 +8°C° 0.2 mm 6 mps 742 mmHg 70%
13:00 +9°C° 0.2 mm 6 mps 743 mmHg 62%
14:00 +9°C° 0.2 mm 7 mps 743 mmHg 53%
15:00 +9°C° 0 mm 6 mps 744 mmHg 53%
16:00 +9°C° 0 mm 6 mps 744 mmHg 53%
17:00 +8°C° 0 mm 5 mps 745 mmHg 53%
18:00 +7°C° 0 mm 5 mps 746 mmHg 58%
19:00 +6°C° 0 mm 4 mps 746 mmHg 63%
20:00 +5°C° 0 mm 4 mps 747 mmHg 68%
21:00 +4°C° 0 mm 3 mps 747 mmHg 74%
22:00 +3°C° 0 mm 3 mps 748 mmHg 80%
23:00 +2°C° 0 mm 3 mps 748 mmHg 86%

Day after tomorrow, 9 May, Sunday

Time Temperature Precipitation Wind Pressure Humidity
00:00 +2°C° 0 mm 3 mps 749 mmHg 89%
01:00 +2°C° 0 mm 2 mps 749 mmHg 92%
02:00 +2°C° 0 mm 2 mps 750 mmHg 95%
03:00 +2°C° 0 mm 2 mps 750 mmHg 95%
04:00 +2°C° 0 mm 2 mps 751 mmHg 96%
05:00 +1°C° 0 mm 2 mps 751 mmHg 97%
06:00 +3°C° 0 mm 2 mps 752 mmHg 86%
07:00 +5°C° 0 mm 2 mps 753 mmHg 76%
08:00 +7°C° 0 mm 2 mps 753 mmHg 65%
09:00 +9°C° 0 mm 2 mps 753 mmHg 58%
10:00 +10°C° 0 mm 2 mps 753 mmHg 52%
11:00 +12°C° 0 mm 2 mps 754 mmHg 45%
12:00 +13°C° 0 mm 2 mps 754 mmHg 43%
13:00 +14°C° 0 mm 2 mps 754 mmHg 41%
14:00 +14°C° 0 mm 2 mps 754 mmHg 40%
15:00 +14°C° 0 mm 2 mps 754 mmHg 41%
16:00 +14°C° 0 mm 2 mps 754 mmHg 42%
17:00 +14°C° 0 mm 2 mps 754 mmHg 43%
18:00 +13°C° 0 mm 2 mps 754 mmHg 51%
19:00 +10°C° 0 mm 2 mps 754 mmHg 58%
20:00 +9°C° 0 mm 1 mps 755 mmHg 66%
21:00 +7°C° 0 mm 2 mps 755 mmHg 68%
22:00 +7°C° 0 mm 2 mps 755 mmHg 70%
23:00 +6°C° 0 mm 2 mps 755 mmHg 72%

10 May, Monday

Time Temperature Precipitation Wind Pressure Humidity
00:00 +5°C° 0 mm 2 mps 755 mmHg 74%
01:00 +5°C° 0 mm 2 mps 756 mmHg 75%
02:00 +5°C° 0 mm 2 mps 756 mmHg 77%
03:00 +5°C° 0 mm 2 mps 756 mmHg 77%
04:00 +5°C° 0 mm 2 mps 756 mmHg 78%
05:00 +4°C° 0 mm 2 mps 756 mmHg 79%
06:00 +7°C° 0 mm 2 mps 757 mmHg 72%
07:00 +9°C° 0 mm 3 mps 757 mmHg 65%
08:00 +11°C° 0 mm 3 mps 757 mmHg 58%
09:00 +13°C° 0 mm 3 mps 757 mmHg 53%
10:00 +14°C° 0 mm 4 mps 757 mmHg 48%
11:00 +17°C° 0 mm 4 mps 757 mmHg 44%
12:00 +18°C° 0 mm 4 mps 757 mmHg 43%
13:00 +18°C° 0 mm 4 mps 757 mmHg 41%
14:00 +19°C° 0 mm 4 mps 756 mmHg 40%
15:00 +19°C° 0 mm 4 mps 756 mmHg 43%
16:00 +18°C° 0 mm 3 mps 756 mmHg 46%
17:00 +18°C° 0 mm 3 mps 756 mmHg 48%
18:00 +16°C° 0 mm 3 mps 756 mmHg 57%
19:00 +13°C° 0 mm 3 mps 756 mmHg 65%
20:00 +11°C° 0 mm 3 mps 756 mmHg 73%
21:00 +10°C° 0 mm 3 mps 756 mmHg 74%
22:00 +9°C° 0 mm 3 mps 757 mmHg 75%
23:00 +8°C° 0 mm 3 mps 757 mmHg 77%

11 May, Tuesday

Time Temperature Precipitation Wind Pressure Humidity
00:00 +8°C° 0 mm 3 mps 757 mmHg 77%
01:00 +7°C° 0 mm 3 mps 757 mmHg 76%
02:00 +7°C° 0 mm 3 mps 757 mmHg 76%
03:00 +6°C° 0 mm 2 mps 757 mmHg 77%
04:00 +6°C° 0 mm 2 mps 757 mmHg 77%
05:00 +6°C° 0 mm 2 mps 757 mmHg 78%
06:00 +8°C° 0 mm 3 mps 757 mmHg 71%
07:00 +11°C° 0 mm 3 mps 757 mmHg 64%
08:00 +13°C° 0 mm 3 mps 757 mmHg 57%
09:00 +14°C° 0 mm 4 mps 757 mmHg 52%
10:00 +17°C° 0 mm 4 mps 756 mmHg 48%
11:00 +18°C° 0 mm 4 mps 756 mmHg 44%
12:00 +19°C° 0 mm 4 mps 756 mmHg 42%
13:00 +20°C° 0 mm 4 mps 756 mmHg 41%
14:00 +20°C° 0 mm 4 mps 755 mmHg 40%
15:00 +20°C° 0 mm 4 mps 755 mmHg 44%
16:00 +20°C° 0 mm 4 mps 755 mmHg 47%
17:00 +19°C° 0 mm 4 mps 755 mmHg 50%
18:00 +17°C° 0 mm 4 mps 754 mmHg 58%
19:00 +14°C° 0 mm 3 mps 754 mmHg 67%
20:00 +12°C° 0 mm 3 mps 754 mmHg 75%
21:00 +11°C° 0 mm 3 mps 754 mmHg 78%
22:00 +11°C° 0 mm 3 mps 754 mmHg 82%
23:00 +10°C° 0 mm 2 mps 754 mmHg 86%

12 May, Wednesday

Time Temperature Precipitation Wind Pressure Humidity
00:00 +9°C° 0 mm 2 mps 754 mmHg 87%
01:00 +9°C° 0 mm 2 mps 753 mmHg 88%
02:00 +8°C° 0 mm 2 mps 753 mmHg 90%
03:00 +8°C° 0 mm 2 mps 753 mmHg 90%
04:00 +8°C° 0 mm 2 mps 753 mmHg 91%
05:00 +7°C° 0 mm 2 mps 753 mmHg 91%
06:00 +10°C° 0 mm 3 mps 753 mmHg 84%
07:00 +12°C° 0 mm 3 mps 753 mmHg 76%
08:00 +14°C° 0 mm 4 mps 753 mmHg 68%
09:00 +17°C° 0 mm 4 mps 752 mmHg 65%
10:00 +18°C° 0 mm 4 mps 752 mmHg 62%
11:00 +20°C° 0 mm 4 mps 752 mmHg 58%
12:00 +20°C° 0 mm 4 mps 751 mmHg 56%
13:00 +21°C° 0 mm 5 mps 751 mmHg 53%
14:00 +22°C° 0 mm 5 mps 751 mmHg 51%
15:00 +22°C° 0 mm 4 mps 750 mmHg 53%
16:00 +21°C° 0 mm 4 mps 750 mmHg 56%
17:00 +21°C° 0 mm 4 mps 750 mmHg 58%
18:00 +19°C° 0 mm 4 mps 750 mmHg 64%
19:00 +17°C° 0 mm 3 mps 749 mmHg 69%
20:00 +14°C° 0 mm 3 mps 749 mmHg 75%
21:00 +13°C° 0 mm 3 mps 749 mmHg 79%
22:00 +13°C° 0 mm 3 mps 749 mmHg 83%
23:00 +12°C° 0 mm 3 mps 749 mmHg 87%
Show more

We Need Your Consent

Meteoprog and our Service Providers may store and access personal data such as cookies, device identifiers or other similar technologies on your device and process such data to personalise content and ads, as well as provide social media features and to analyse the traffic.

  • Store and/or access information on your device

    Cookies, device identifiers or other information can be stored or accessed on your device for the purposes indicated above.

  • Personalised ads and content, ad and content measurement, audience insights, and products development

    Ads and content can be personalised based on a profile. More data can be added to better personalise ads and content. Ad and content performance can be measured. Insights about the audience who saw the ads and content can be derived. Such data can be used to develop or improve user’s experience, systems and software.

By clicking ‘I Agree’ you will allow the use of indicated cookies, device identifiers, web beacons or other similar technologies. Your settings can be changed in the browser on your device.

For certain purposes, legitimate interests may be relied on, rather than consent. You can read more about this in our Privacy and Cookie Policy.